CW8847 Weather Reports


time (UTC)temp
C
wind
direction
speed
KPH
gust
KPH
rain 1hr
cm
rain 24hr
cm
rain mn
cm
humidity
%
barometer
mb
20260502105620 7 26 4.8 6.4 0.00 0.00 0.00 54 1018.8
20260502104631 7 26 1.6 4.8 0.00 0.00 0.00 54 1018.7
20260502103619 8 26 3.2 6.4 0.00 0.00 0.00 54 1018.8
20260502102626 8 26 3.2 3.2 0.00 0.00 0.00 53 1018.6
20260502101614 8 26 1.6 6.4 0.00 0.00 0.00 51 1018.7
20260502100646 8 26 4.8 6.4 0.00 0.00 0.00 52 1018.6
20260502090628 10 34 9.7 12.9 0.00 0.00 0.00 47 1018.7
20260502070623 8 73 6.4 8.0 0.00 0.00 0.00 52 1018.9
20260502065624 8 74 6.4 12.9 0.00 0.00 0.00 49 1018.8
20260502064618 8 28 6.4 9.7 0.00 0.00 0.00 48 1018.6
20260502063647 8 24 3.2 8.0 0.00 0.00 0.00 48 1018.5
20260502062634 10 24 1.6 4.8 0.00 0.00 0.00 45 1018.5
20260502061620 12 23 6.4 16.1 0.00 0.00 0.00 37 1018.3
20260502060619 12 15 14.5 16.1 0.00 0.00 0.00 35 1018.2
20260502055619 12 15 0.0 3.2 0.00 0.00 0.00 35 1018.2
20260502054613 12 15 3.2 4.8 0.00 0.00 0.00 35 1018.2
20260502053622 12 16 6.4 14.5 0.00 0.00 0.00 35 1018.1
20260502052612 12 15 14.5 16.1 0.00 0.00 0.00 36 1018.0
20260502051626 12 5 0.0 4.8 0.00 0.00 0.00 34 1018.0
20260502050614 12 5 0.0 4.8 0.00 0.00 0.00 35 1018.0
20260502045613 12 5 1.6 3.2 0.00 0.00 0.00 35 1018.0
20260502044623 12 5 1.6 3.2 0.00 0.00 0.00 33 1018.0
20260502043615 13 5 1.6 4.8 0.00 0.00 0.00 34 1018.0
20260502042624 13 5 1.6 3.2 0.00 0.00 0.00 33 1018.0
20260502041614 12 5 8.0 9.7 0.00 0.00 0.00 34 1018.0
20260502040645 12 5 11.3 14.5 0.00 0.00 0.00 36 1017.9
20260502035629 12 5 12.9 14.5 0.00 0.00 0.00 37 1017.8
20260502034616 12 5 16.1 16.1 0.00 0.00 0.00 36 1017.7
20260502033625 12 5 14.5 14.5 0.00 0.00 0.00 36 1017.6
20260502032617 12 360 14.5 17.7 0.00 0.00 0.00 35 1017.5
20260502031630 12 360 16.1 17.7 0.00 0.00 0.00 34 1017.4
20260502030638 12 360 16.1 17.7 0.00 0.00 0.00 33 1017.3
20260502025618 12 355 16.1 17.7 0.00 0.00 0.00 33 1017.0
20260502024628 13 355 16.1 19.3 0.00 0.00 0.00 32 1017.0
20260502023622 13 350 14.5 16.1 0.00 0.00 0.00 32 1016.9
20260502022613 13 355 16.1 17.7 0.00 0.00 0.00 34 1016.9
20260502021623 14 355 14.5 16.1 0.00 0.00 0.00 34 1016.9
20260502020652 16 13 11.3 14.5 0.00 0.00 0.00 32 1016.9
20260502015616 17 17 8.0 9.7 0.00 0.00 0.00 25 1016.8
20260502014623 17 17 8.0 9.7 0.00 0.00 0.00 25 1016.9
20260502013613 18 18 9.7 12.9 0.00 0.00 0.00 22 1016.9
20260502012623 18 19 9.7 14.5 0.00 0.00 0.00 23 1016.9
20260502011616 18 19 8.0 9.7 0.00 0.00 0.00 21 1016.8
20260502010627 19 340 4.8 14.5 0.00 0.00 0.00 19 1016.9
20260502005627 18 71 6.4 19.3 0.00 0.00 0.00 17 1017.0
20260502004619 18 36 4.8 14.5 0.00 0.00 0.00 19 1017.0
20260502003613 18 28 8.0 17.7 0.00 0.00 0.00 18 1017.0
20260502002621 18 59 12.9 20.9 0.00 0.00 0.00 19 1017.0
20260502001630 18 39 16.1 22.5 0.00 0.00 0.00 21 1017.0
20260502000615 18 21 14.5 22.5 0.00 0.00 0.00 19 1017.0
20260501235622 18 46 17.7 22.5 0.00 0.00 0.00 19 1017.1
20260501234631 19 15 14.5 22.5 0.00 0.00 0.00 20 1017.1
20260501233618 19 49 12.9 20.9 0.00 0.00 0.00 20 1017.2
20260501232627 19 22 12.9 22.5 0.00 0.00 0.00 18 1017.3
20260501231620 19 46 11.3 19.3 0.00 0.00 0.00 19 1017.2
20260501230630 18 32 16.1 25.7 0.00 0.00 0.00 20 1017.3
20260501225631 19 36 14.5 20.9 0.00 0.00 0.00 22 1017.4
20260501224621 18 57 11.3 16.1 0.00 0.00 0.00 20 1017.5
20260501223613 19 86 8.0 22.5 0.00 0.00 0.00 19 1017.6
20260501222641 18 30 16.1 29.0 0.00 0.00 0.00 19 1017.8
20260501221629 18 47 9.7 17.7 0.00 0.00 0.00 25 1017.8
20260501220617 18 95 12.9 22.5 0.00 0.00 0.00 21 1018.0
20260501215619 18 57 14.5 24.1 0.00 0.00 0.00 21 1018.2
20260501214627 18 337 8.0 22.5 0.00 0.00 0.00 23 1018.3
20260501213615 18 65 1.6 19.3 0.00 0.00 0.00 20 1018.4
20260501212623 18 56 12.9 19.3 0.00 0.00 0.00 21 1018.5
20260501211616 18 65 12.9 22.5 0.00 0.00 0.00 23 1018.6
20260501210626 18 88 11.3 19.3 0.00 0.00 0.00 23 1018.6
20260501205626 17 69 11.3 22.5 0.00 0.00 0.00 23 1018.6
20260501204632 18 106 14.5 22.5 0.00 0.00 0.00 23 1018.7
20260501203626 17 327 6.4 24.1 0.00 0.00 0.00 24 1018.7
20260501202615 17 44 9.7 19.3 0.00 0.00 0.00 25 1018.8
20260501201624 17 21 11.3 30.6 0.00 0.00 0.00 26 1018.9
20260501200619 17 180 3.2 12.9 0.00 0.00 0.00 24 1018.9
20260501195620 16 101 9.7 19.3 0.00 0.00 0.00 24 1019.0
20260501194627 16 215 3.2 12.9 0.00 0.00 0.00 24 1019.0
20260501193617 16 78 4.8 22.5 0.00 0.00 0.00 24 1019.1
20260501192629 16 55 12.9 24.1 0.00 0.00 0.00 26 1019.1
20260501191616 16 170 1.6 8.0 0.00 0.00 0.00 25 1019.3
20260501190626 16 34 6.4 29.0 0.00 0.00 0.00 27 1019.4